FW6259 Weather Reports


time (UTC)temp
F
wind
direction
speed
knots
gust
knots
rain 1hr
in
rain 24hr
in
rain mn
in
humidity
%
barometer
mb
20260510200050 55 231 7.0 22.6 0.00 0.00 0.00 45 999.2
20260510194548 55 231 9.6 19.1 0.00 0.00 0.00 46 998.9
20260510193104 54 171 7.8 14.8 0.00 0.00 0.00 48 998.9
20260510191600 52 258 1.7 5.2 0.00 0.00 0.00 57 998.8
20260510190045 51 165 0.0 3.5 0.00 0.00 0.00 63 998.8
20260510184554 50 239 1.7 5.2 0.00 0.00 0.00 64 998.8
20260510183055 51 134 0.9 7.0 0.00 0.00 0.00 64 998.9
20260510181551 49 191 1.7 8.7 0.00 0.00 0.00 66 998.9
20260510180002 49 252 3.5 7.0 0.00 0.00 0.00 66 998.7
20260510174557 48 200 2.6 5.2 0.00 0.00 0.00 67 998.7
20260510173102 47 137 0.9 4.3 0.00 0.00 0.00 73 998.7
20260510171505 46 250 1.7 4.3 0.00 0.00 0.00 74 998.6
20260510170059 45 255 0.9 3.5 0.00 0.00 0.00 76 998.5
20260510164607 43 219 0.9 3.5 0.00 0.00 0.00 79 998.3
20260510163047 43 254 0.9 2.6 0.00 0.00 0.00 79 998.4
20260510161505 41 206 0.0 0.9 0.00 0.00 0.00 82 998.4
20260510160055 41 184 0.0 2.6 0.00 0.00 0.00 83 998.2
20260510154548 40 319 0.0 0.9 0.00 0.00 0.00 83 998.0
20260510153059 39 295 0.0 0.9 0.00 0.00 0.00 84 997.9
20260510151604 38 168 0.0 0.0 0.00 0.00 0.00 86 998.1
20260510150049 37 147 0.0 0.0 0.00 0.00 0.00 88 997.9
20260510144603 35 146 0.0 0.0 0.00 0.00 0.00 88 997.7
20260510143057 34 146 0.0 2.6 0.00 0.00 0.00 89 997.7
20260510141555 33 28 0.0 2.6 0.00 0.00 0.00 89 997.6
20260510140045 34 120 0.0 0.9 0.00 0.00 0.00 88 997.5
20260510134558 34 155 0.0 0.9 0.00 0.00 0.00 88 997.5
20260510133053 34 339 0.0 1.7 0.00 0.00 0.00 87 997.3
20260510131549 34 130 0.0 0.0 0.00 0.00 0.00 88 997.2
20260510130042 35 295 0.0 0.0 0.00 0.00 0.00 87 997.4
20260510124603 35 295 0.0 1.7 0.00 0.00 0.00 88 997.4
20260510123047 35 237 0.0 0.0 0.00 0.00 0.00 88 997.3
20260510121504 35 237 0.0 0.0 0.00 0.00 0.00 87 997.3
20260510120054 36 237 0.0 0.0 0.00 0.00 0.00 86 997.4
20260510114559 36 237 0.0 0.0 0.00 0.01 0.00 86 997.3
20260510113043 36 237 0.0 0.9 0.00 0.01 0.00 84 997.3
20260510111556 36 217 0.0 0.0 0.00 0.01 0.00 85 997.4
20260510110048 37 217 0.0 0.0 0.00 0.01 0.00 84 997.5
20260510104559 37 217 0.0 0.0 0.00 0.01 0.00 84 997.3
20260510103100 38 217 0.0 0.0 0.00 0.01 0.00 83 997.2
20260510101556 38 217 0.0 0.9 0.00 0.01 0.00 83 997.3
20260510100052 39 217 0.0 0.0 0.00 0.01 0.00 81 997.4
20260510094602 40 217 0.0 0.0 0.00 0.02 0.00 79 997.3
20260510093056 41 217 0.0 0.9 0.00 0.02 0.00 77 997.3
20260510091548 41 217 0.0 2.6 0.00 0.02 0.00 77 997.4
20260510090104 42 252 0.0 0.9 0.00 0.02 0.00 75 997.3
20260510084559 43 293 0.0 0.0 0.00 0.03 0.00 73 997.4
20260510083048 44 337 0.9 6.1 0.00 0.03 0.00 73 997.3
20260510081601 44 328 0.9 5.2 0.00 0.03 0.00 72 997.3
20260510080049 44 276 0.9 5.2 0.00 0.03 0.00 73 997.1
20260510074600 44 330 0.9 3.5 0.00 0.03 0.03 73 997.5
20260510073054 44 266 0.9 5.2 0.00 0.03 0.03 75 997.2
20260510071559 43 296 0.9 6.1 0.00 0.03 0.03 78 997.2
20260510070044 44 235 1.7 4.3 0.00 0.03 0.03 79 997.2
20260510064612 44 275 2.6 7.0 0.00 0.04 0.03 79 997.2
20260510063100 45 266 0.9 5.2 0.00 0.04 0.03 74 997.0
20260510061546 45 295 1.7 4.3 0.00 0.04 0.03 72 996.9
20260510060051 46 300 1.7 5.2 0.00 0.04 0.03 71 996.9
20260510054555 47 278 1.7 4.3 0.00 0.05 0.03 69 996.8
20260510053046 47 257 2.6 5.2 0.00 0.05 0.03 68 996.6
20260510051554 48 283 0.9 3.5 0.00 0.05 0.03 67 996.7
20260510050101 49 285 0.9 5.2 0.00 0.05 0.03 64 996.6
20260510044555 50 330 1.7 3.5 0.00 0.06 0.03 61 996.5
20260510043049 50 323 0.0 2.6 0.00 0.06 0.03 59 996.4
20260510041611 51 285 0.0 2.6 0.00 0.06 0.03 57 996.6
20260510040055 51 285 0.9 2.6 0.00 0.06 0.03 55 996.6
20260510034551 51 307 0.0 1.7 0.00 0.06 0.03 57 996.5
20260510033101 52 268 0.9 4.3 0.00 0.06 0.03 54 996.4
20260510031602 52 259 4.3 9.6 0.00 0.06 0.03 53 996.6
20260510030053 54 97 0.9 7.0 0.00 0.06 0.03 49 997.0
20260510024555 55 72 0.0 1.7 0.00 0.06 0.03 46 996.6
20260510023040 55 86 0.0 1.7 0.00 0.06 0.03 43 996.5
20260510021558 56 240 0.0 2.6 0.00 0.06 0.03 42 996.4
20260510020052 56 23 0.9 4.3 0.00 0.06 0.03 45 996.5
20260510014544 56 6 0.9 5.2 0.00 0.06 0.03 45 996.6
20260510013106 56 40 2.6 7.8 0.00 0.06 0.03 46 996.8
20260510011555 56 38 0.9 7.0 0.00 0.06 0.03 47 996.8
20260510010100 56 13 1.7 8.7 0.00 0.06 0.03 46 997.0
20260510004500 57 57 3.5 9.6 0.00 0.06 0.03 47 997.1
20260510003104 56 8 2.6 5.2 0.00 0.06 0.03 48 997.2
20260510001554 57 46 3.5 7.8 0.00 0.06 0.03 47 997.4
20260510000048 57 282 0.9 6.1 0.00 0.06 0.03 47 997.7
20260509234503 55 68 2.6 7.0 0.00 0.06 0.03 48 997.8
20260509233053 55 312 2.6 7.0 0.00 0.06 0.03 48 998.0
20260509231549 55 18 2.6 6.1 0.00 0.06 0.03 51 998.0
20260509230044 54 80 1.7 7.8 0.00 0.06 0.03 51 998.1
20260509224557 54 34 1.7 4.3 0.00 0.06 0.03 53 998.2
20260509223054 53 110 0.9 4.3 0.00 0.06 0.03 55 998.2
20260509221525 52 1 0.9 4.3 0.00 0.06 0.03 57 998.4
20260509220104 52 275 0.9 4.3 0.00 0.06 0.03 62 998.5
20260509214505 51 4 1.7 3.5 0.00 0.06 0.03 63 998.7
20260509213053 49 205 1.7 3.5 0.00 0.06 0.03 67 998.9
20260509211547 49 224 1.7 5.2 0.00 0.06 0.03 70 998.9
20260509210054 48 255 1.7 3.5 0.00 0.06 0.03 71 998.9
20260509204602 47 79 0.9 3.5 0.00 0.06 0.03 75 998.8
20260509203055 46 328 0.9 3.5 0.00 0.06 0.03 78 998.6
20260509201548 44 133 0.9 3.5 0.00 0.06 0.03 79 998.8